TimeCDT,TemperatureF,Dew PointF,Humidity,Sea Level PressureIn,VisibilityMPH,Wind Direction,Wind SpeedMPH,Gust SpeedMPH,PrecipitationIn,Events,Conditions,WindDirDegrees,DateUTC
12:15 AM,37.4,28.4,70,30.04,10.0,East,11.5,-,N/A,,Scattered Clouds,100,2013-04-06 05:15:00
12:35 AM,37.4,28.4,70,30.05,10.0,East,10.4,-,N/A,,Mostly Cloudy,100,2013-04-06 05:35:00
12:55 AM,37.4,28.4,70,30.04,10.0,ESE,12.7,-,N/A,,Overcast,110,2013-04-06 05:55:00
1:15 AM,37.4,24.8,60,30.02,10.0,ESE,12.7,23.0,N/A,,Overcast,110,2013-04-06 06:15:00
1:35 AM,35.6,24.8,65,30.02,10.0,ESE,17.3,-,N/A,,Mostly Cloudy,120,2013-04-06 06:35:00
1:55 AM,35.6,23.0,60,30.01,10.0,ESE,16.1,-,N/A,,Overcast,110,2013-04-06 06:55:00
2:15 AM,35.6,23.0,60,30.00,10.0,ESE,13.8,21.9,N/A,,Overcast,110,2013-04-06 07:15:00
2:55 AM,35.6,21.2,56,29.98,10.0,ESE,13.8,-,N/A,,Overcast,110,2013-04-06 07:55:00
3:15 AM,35.6,19.4,52,29.98,10.0,ESE,13.8,-,N/A,,Overcast,110,2013-04-06 08:15:00
3:35 AM,35.6,19.4,52,29.98,10.0,ESE,12.7,-,N/A,,Overcast,110,2013-04-06 08:35:00
3:55 AM,35.6,19.4,52,29.96,10.0,ESE,17.3,-,N/A,,Overcast,120,2013-04-06 08:55:00
4:15 AM,35.6,19.4,52,29.95,10.0,ESE,16.1,-,N/A,,Overcast,120,2013-04-06 09:15:00
4:35 AM,35.6,19.4,52,29.95,10.0,SE,16.1,-,N/A,,Overcast,130,2013-04-06 09:35:00
4:55 AM,35.6,19.4,52,29.94,10.0,ESE,16.1,24.2,N/A,,Overcast,120,2013-04-06 09:55:00
5:15 AM,35.6,19.4,52,29.93,10.0,ESE,17.3,-,N/A,,Mostly Cloudy,120,2013-04-06 10:15:00
5:35 AM,35.6,19.4,52,29.92,10.0,ESE,18.4,28.8,N/A,,Mostly Cloudy,120,2013-04-06 10:35:00
5:55 AM,35.6,19.4,52,29.90,10.0,SE,18.4,26.5,N/A,,Scattered Clouds,130,2013-04-06 10:55:00
6:15 AM,35.6,19.4,52,29.90,10.0,SE,17.3,25.3,N/A,,Mostly Cloudy,130,2013-04-06 11:15:00
6:35 AM,35.6,21.2,56,29.89,10.0,SE,19.6,27.6,N/A,,Mostly Cloudy,130,2013-04-06 11:35:00
6:55 AM,35.6,21.2,56,29.88,10.0,SE,20.7,26.5,N/A,,Overcast,130,2013-04-06 11:55:00
7:15 AM,37.4,21.2,52,29.89,10.0,SE,17.3,28.8,N/A,,Overcast,140,2013-04-06 12:15:00
7:35 AM,35.6,24.8,65,29.87,10.0,SE,17.3,25.3,N/A,Rain,Light Rain,140,2013-04-06 12:35:00
7:55 AM,37.4,26.6,65,29.85,10.0,SE,18.4,26.5,N/A,Rain,Light Rain,130,2013-04-06 12:55:00
8:15 AM,37.4,26.6,65,29.85,10.0,SSE,16.1,19.6,N/A,,Overcast,150,2013-04-06 13:15:00
8:35 AM,37.4,28.4,70,29.82,10.0,SE,17.3,26.5,N/A,,Overcast,140,2013-04-06 13:35:00
8:55 AM,37.4,28.4,70,29.81,10.0,SE,19.6,25.3,N/A,,Overcast,140,2013-04-06 13:55:00
9:15 AM,39.2,28.4,65,29.78,10.0,SE,18.4,24.2,N/A,,Overcast,130,2013-04-06 14:15:00
9:35 AM,41.0,28.4,61,29.77,10.0,SE,21.9,27.6,N/A,,Overcast,130,2013-04-06 14:35:00
9:55 AM,41.0,30.2,65,29.77,10.0,SSE,15.0,23.0,N/A,,Scattered Clouds,150,2013-04-06 14:55:00
10:15 AM,42.8,30.2,61,29.75,10.0,SSE,20.7,25.3,N/A,,Clear,150,2013-04-06 15:15:00
10:55 AM,48.2,32.0,54,29.73,10.0,SSE,18.4,23.0,N/A,,Scattered Clouds,160,2013-04-06 15:55:00
11:15 AM,50.0,32.0,50,29.72,10.0,SSE,16.1,24.2,N/A,,Clear,160,2013-04-06 16:15:00
11:55 AM,55.4,32.0,41,29.70,10.0,South,21.9,31.1,N/A,,Clear,170,2013-04-06 16:55:00
12:15 PM,55.4,32.0,41,29.69,10.0,SSE,21.9,28.8,N/A,,Clear,160,2013-04-06 17:15:00
12:35 PM,59.0,33.8,39,29.68,10.0,South,17.3,25.3,N/A,,Clear,170,2013-04-06 17:35:00
12:55 PM,57.2,32.0,38,29.67,10.0,South,17.3,24.2,N/A,,Clear,170,2013-04-06 17:55:00
1:15 PM,59.0,33.8,39,29.66,10.0,SSE,13.8,24.2,N/A,,Scattered Clouds,160,2013-04-06 18:15:00
1:35 PM,59.0,33.8,39,29.63,10.0,SSE,12.7,21.9,N/A,,Scattered Clouds,160,2013-04-06 18:35:00
1:55 PM,60.8,33.8,36,29.63,10.0,South,10.4,-,N/A,,Scattered Clouds,170,2013-04-06 18:55:00
2:15 PM,59.0,37.4,45,29.62,10.0,South,16.1,23.0,N/A,Rain,Light Rain,190,2013-04-06 19:15:00
2:35 PM,59.0,39.2,48,29.62,10.0,South,13.8,-,N/A,Rain,Light Rain,190,2013-04-06 19:35:00
2:55 PM,59.0,39.2,48,29.61,10.0,South,8.1,-,N/A,,Overcast,190,2013-04-06 19:55:00
3:15 PM,59.0,37.4,45,29.60,10.0,South,8.1,-,N/A,,Overcast,190,2013-04-06 20:15:00
3:35 PM,60.8,37.4,42,29.59,10.0,SSW,9.2,-,N/A,,Overcast,200,2013-04-06 20:35:00
3:55 PM,60.8,37.4,42,29.59,10.0,SSW,15.0,18.4,N/A,,Overcast,210,2013-04-06 20:55:00
4:15 PM,60.8,37.4,42,29.57,10.0,SSW,15.0,23.0,N/A,,Overcast,210,2013-04-06 21:15:00
4:35 PM,60.8,37.4,42,29.57,10.0,SSW,13.8,19.6,N/A,,Overcast,200,2013-04-06 21:35:00
4:55 PM,59.0,37.4,45,29.57,10.0,SSW,9.2,-,N/A,Rain,Light Rain,210,2013-04-06 21:55:00
5:15 PM,59.0,41.0,51,29.56,10.0,SSW,9.2,-,N/A,Rain,Light Rain,210,2013-04-06 22:15:00
5:35 PM,59.0,41.0,51,29.57,10.0,SSW,13.8,18.4,N/A,Rain,Light Rain,210,2013-04-06 22:35:00
5:55 PM,59.0,41.0,51,29.57,10.0,SW,15.0,20.7,N/A,Rain,Light Rain,220,2013-04-06 22:55:00
6:15 PM,57.2,44.6,63,29.57,10.0,SW,17.3,23.0,N/A,Rain,Light Rain,220,2013-04-06 23:15:00
6:35 PM,55.4,44.6,67,29.57,10.0,SW,13.8,20.7,N/A,Rain,Light Rain,220,2013-04-06 23:35:00
6:55 PM,55.4,46.4,72,29.56,10.0,SSW,11.5,-,N/A,Rain,Light Rain,210,2013-04-06 23:55:00
7:15 PM,55.4,46.4,72,29.55,10.0,SSW,11.5,-,N/A,Rain,Light Rain,200,2013-04-07 00:15:00
7:35 PM,55.4,46.4,72,29.55,10.0,SSW,8.1,-,N/A,,Overcast,210,2013-04-07 00:35:00
7:55 PM,53.6,46.4,77,29.55,10.0,SW,9.2,-,N/A,Rain,Light Rain,220,2013-04-07 00:55:00
8:15 PM,53.6,46.4,77,29.55,7.0,SW,10.4,-,0.02,Rain,Rain,220,2013-04-07 01:15:00
8:35 PM,53.6,46.4,77,29.55,10.0,SW,6.9,-,0.02,,Overcast,230,2013-04-07 01:35:00
8:55 PM,53.6,48.2,82,29.57,7.0,West,12.7,-,0.05,Rain,Heavy Rain,270,2013-04-07 01:55:00
9:15 PM,51.8,50.0,94,29.57,10.0,West,12.7,-,N/A,,Overcast,260,2013-04-07 02:15:00
9:35 PM,51.8,48.2,88,29.58,10.0,West,13.8,20.7,N/A,,Overcast,270,2013-04-07 02:35:00
9:55 PM,51.8,46.4,82,29.59,10.0,West,19.6,-,N/A,Rain,Light Rain,280,2013-04-07 02:55:00
10:15 PM,50.0,46.4,87,29.60,10.0,WNW,15.0,20.7,N/A,,Overcast,290,2013-04-07 03:15:00
10:35 PM,50.0,44.6,82,29.61,10.0,West,15.0,-,N/A,,Overcast,270,2013-04-07 03:35:00
10:55 PM,50.0,44.6,82,29.61,10.0,West,16.1,21.9,N/A,,Overcast,270,2013-04-07 03:55:00
11:15 PM,48.2,44.6,87,29.62,7.0,WNW,18.4,21.9,N/A,,Overcast,290,2013-04-07 04:15:00
11:35 PM,46.4,42.8,87,29.62,7.0,West,13.8,23.0,N/A,,Overcast,280,2013-04-07 04:35:00
11:55 PM,46.4,42.8,87,29.63,7.0,West,13.8,24.2,N/A,,Overcast,280,2013-04-07 04:55:00